Time,TemperatureF,DewpointF,PressureIn,WindDirection,WindDirectionDegrees,WindSpeedMPH,WindSpeedGustMPH,Humidity,HourlyPrecipIn,Conditions,Clouds,dailyrainin,SoftwareType,DateUTC
2013-04-28 00:01:00,50.7,30.6,30.27,WNW,293,0.0,1.1,46,0.00,,,0.00,WUHU216HW,2013-04-28 04:01:00,
2013-04-28 00:02:00,50.6,30.5,30.27,WNW,293,0.0,1.1,46,0.00,,,0.00,WUHU216HW,2013-04-28 04:02:00,
2013-04-28 00:07:00,50.6,30.5,30.27,West,270,0.0,0.7,46,0.00,,,0.00,WUHU216HW,2013-04-28 04:07:00,
2013-04-28 00:12:00,50.4,29.7,30.27,WNW,293,0.2,0.7,45,0.00,,,0.00,WUHU216HW,2013-04-28 04:12:00,
2013-04-28 00:17:00,50.2,29.6,30.27,SE,135,0.0,0.9,45,0.00,,,0.00,WUHU216HW,2013-04-28 04:17:00,
2013-04-28 00:22:00,50.0,29.9,30.27,SE,135,0.2,1.1,46,0.00,,,0.00,WUHU216HW,2013-04-28 04:22:00,
2013-04-28 00:27:00,49.8,29.7,30.27,WNW,293,0.0,1.1,46,0.00,,,0.00,WUHU216HW,2013-04-28 04:27:00,
2013-04-28 00:32:00,49.8,29.7,30.27,NE,45,0.0,0.9,46,0.00,,,0.00,WUHU216HW,2013-04-28 04:32:00,
2013-04-28 00:37:00,49.7,29.7,30.27,NNW,338,0.0,0.4,46,0.00,,,0.00,WUHU216HW,2013-04-28 04:37:00,
2013-04-28 00:42:00,49.5,29.5,30.27,NNW,338,0.0,0.4,46,0.00,,,0.00,WUHU216HW,2013-04-28 04:42:00,
2013-04-28 00:47:00,49.5,29.5,30.27,NNW,338,0.0,0.0,46,0.00,,,0.00,WUHU216HW,2013-04-28 04:47:00,
2013-04-28 00:52:00,49.3,29.8,30.27,West,270,0.4,0.4,47,0.00,,,0.00,WUHU216HW,2013-04-28 04:52:00,
2013-04-28 00:57:00,49.1,29.7,30.27,SW,225,0.4,0.7,47,0.00,,,0.00,WUHU216HW,2013-04-28 04:57:00,
2013-04-28 01:02:00,48.9,29.5,30.27,SE,135,0.4,0.7,47,0.00,,,0.00,WUHU216HW,2013-04-28 05:02:00,
2013-04-28 01:08:00,48.8,29.4,30.27,SE,135,0.0,0.4,47,0.00,,,0.00,WUHU216HW,2013-04-28 05:08:00,
2013-04-28 01:13:00,48.8,29.4,30.26,SSE,158,0.0,0.4,47,0.00,,,0.00,WUHU216HW,2013-04-28 05:13:00,
2013-04-28 01:18:00,48.6,29.2,30.27,SSW,203,0.0,0.7,47,0.00,,,0.00,WUHU216HW,2013-04-28 05:18:00,
2013-04-28 01:23:00,48.4,29.5,30.27,SE,135,0.0,0.7,48,0.00,,,0.00,WUHU216HW,2013-04-28 05:23:00,
2013-04-28 01:28:00,48.2,29.4,30.27,SSW,203,2.0,2.5,48,0.00,,,0.00,WUHU216HW,2013-04-28 05:28:00,
2013-04-28 01:33:00,48.2,29.4,30.26,WSW,248,2.2,2.5,48,0.00,,,0.00,WUHU216HW,2013-04-28 05:33:00,
2013-04-28 01:38:00,48.2,29.4,30.26,SE,135,0.0,2.2,48,0.00,,,0.00,WUHU216HW,2013-04-28 05:38:00,
2013-04-28 01:43:00,48.0,29.2,30.26,SW,225,0.0,1.8,48,0.00,,,0.00,WUHU216HW,2013-04-28 05:43:00,
2013-04-28 01:48:00,48.0,29.2,30.26,WSW,248,0.9,1.8,48,0.00,,,0.00,WUHU216HW,2013-04-28 05:48:00,
2013-04-28 01:53:00,48.0,29.7,30.25,SE,135,0.0,1.1,49,0.00,,,0.00,WUHU216HW,2013-04-28 05:53:00,
2013-04-28 01:58:00,48.0,29.2,30.25,SE,135,0.0,1.1,48,0.00,,,0.00,WUHU216HW,2013-04-28 05:58:00,
2013-04-28 02:03:00,47.9,29.6,30.25,SE,135,0.0,0.0,49,0.00,,,0.00,WUHU216HW,2013-04-28 06:03:00,
2013-04-28 02:08:00,47.9,29.6,30.25,SE,135,0.4,0.7,49,0.00,,,0.00,WUHU216HW,2013-04-28 06:08:00,
2013-04-28 02:13:00,47.9,29.6,30.25,SE,135,0.9,0.9,49,0.00,,,0.00,WUHU216HW,2013-04-28 06:13:00,
2013-04-28 02:18:00,47.7,29.4,30.25,SE,135,0.4,0.9,49,0.00,,,0.00,WUHU216HW,2013-04-28 06:18:00,
2013-04-28 02:23:00,47.7,29.4,30.25,SE,135,0.0,0.7,49,0.00,,,0.00,WUHU216HW,2013-04-28 06:23:00,
2013-04-28 02:28:00,47.5,29.2,30.25,SE,135,0.0,0.7,49,0.00,,,0.00,WUHU216HW,2013-04-28 06:28:00,
2013-04-28 02:33:00,47.5,29.2,30.25,SE,135,0.0,0.0,49,0.00,,,0.00,WUHU216HW,2013-04-28 06:33:00,
2013-04-28 02:38:00,47.3,29.0,30.25,SE,135,0.0,0.2,49,0.00,,,0.00,WUHU216HW,2013-04-28 06:38:00,
2013-04-28 02:43:00,47.3,29.6,30.24,SE,135,0.4,0.4,50,0.00,,,0.00,WUHU216HW,2013-04-28 06:43:00,
2013-04-28 02:49:00,47.1,29.4,30.24,SE,135,0.0,0.4,50,0.00,,,0.00,WUHU216HW,2013-04-28 06:49:00,
2013-04-28 02:54:00,47.0,29.3,30.24,SE,135,0.0,0.4,50,0.00,,,0.00,WUHU216HW,2013-04-28 06:54:00,
2013-04-28 02:59:00,47.0,29.3,30.24,SE,135,0.0,0.0,50,0.00,,,0.00,WUHU216HW,2013-04-28 06:59:00,
2013-04-28 03:04:00,46.8,29.1,30.24,SE,135,0.9,0.9,50,0.00,,,0.00,WUHU216HW,2013-04-28 07:04:00,
2013-04-28 03:09:00,46.6,28.9,30.24,SE,135,0.7,1.3,50,0.00,,,0.00,WUHU216HW,2013-04-28 07:09:00,
2013-04-28 03:14:00,46.6,29.4,30.24,SE,135,0.7,1.3,51,0.00,,,0.00,WUHU216HW,2013-04-28 07:14:00,
2013-04-28 03:19:00,46.4,29.2,30.24,SE,135,1.1,1.1,51,0.00,,,0.00,WUHU216HW,2013-04-28 07:19:00,
2013-04-28 03:24:00,46.2,29.0,30.24,SE,135,0.4,1.3,51,0.00,,,0.00,WUHU216HW,2013-04-28 07:24:00,
2013-04-28 03:29:00,46.1,29.4,30.24,SE,135,0.9,1.3,52,0.00,,,0.00,WUHU216HW,2013-04-28 07:29:00,
2013-04-28 03:34:00,46.1,29.4,30.24,SE,135,0.2,1.1,52,0.00,,,0.00,WUHU216HW,2013-04-28 07:34:00,
2013-04-28 03:40:00,45.9,29.7,30.24,SE,135,0.0,0.9,53,0.00,,,0.00,WUHU216HW,2013-04-28 07:40:00,
2013-04-28 03:45:00,45.7,29.5,30.24,SE,135,0.0,0.4,53,0.00,,,0.00,WUHU216HW,2013-04-28 07:45:00,
2013-04-28 03:50:00,45.5,29.4,30.24,SE,135,0.0,0.0,53,0.00,,,0.00,WUHU216HW,2013-04-28 07:50:00,
2013-04-28 03:55:00,45.3,29.2,30.24,SE,135,0.0,0.0,53,0.00,,,0.00,WUHU216HW,2013-04-28 07:55:00,
2013-04-28 04:00:00,45.2,29.1,30.25,SE,135,0.0,0.0,53,0.00,,,0.00,WUHU216HW,2013-04-28 08:00:00,
2013-04-28 04:05:00,45.0,28.9,30.25,SE,135,0.0,0.0,53,0.00,,,0.00,WUHU216HW,2013-04-28 08:05:00,
2013-04-28 04:10:00,45.0,28.9,30.24,SE,135,0.0,0.4,53,0.00,,,0.00,WUHU216HW,2013-04-28 08:10:00,
2013-04-28 04:15:00,44.8,29.2,30.24,SE,135,0.9,1.6,54,0.00,,,0.00,WUHU216HW,2013-04-28 08:15:00,
2013-04-28 04:20:00,44.6,29.0,30.24,SE,135,1.1,1.6,54,0.00,,,0.00,WUHU216HW,2013-04-28 08:20:00,
2013-04-28 04:26:00,44.4,29.3,30.25,SE,135,0.4,1.6,55,0.00,,,0.00,WUHU216HW,2013-04-28 08:26:00,
2013-04-28 04:31:00,44.4,29.3,30.24,SE,135,0.9,1.1,55,0.00,,,0.00,WUHU216HW,2013-04-28 08:31:00,
2013-04-28 04:36:00,44.3,29.2,30.24,SE,135,0.0,1.1,55,0.00,,,0.00,WUHU216HW,2013-04-28 08:36:00,
2013-04-28 04:41:00,44.1,29.0,30.24,SE,135,0.0,1.1,55,0.00,,,0.00,WUHU216HW,2013-04-28 08:41:00,
2013-04-28 04:46:00,44.1,29.4,30.24,SE,135,0.0,0.0,56,0.00,,,0.00,WUHU216HW,2013-04-28 08:46:00,
2013-04-28 04:51:00,43.9,29.2,30.23,SE,135,1.1,1.1,56,0.00,,,0.00,WUHU216HW,2013-04-28 08:51:00,
2013-04-28 04:56:00,43.9,29.2,30.23,SE,135,0.9,1.1,56,0.00,,,0.00,WUHU216HW,2013-04-28 08:56:00,
2013-04-28 05:01:00,43.7,29.5,30.23,SE,135,0.0,1.1,57,0.00,,,0.00,WUHU216HW,2013-04-28 09:01:00,
2013-04-28 05:06:00,43.5,29.3,30.23,SE,135,0.0,0.9,57,0.00,,,0.00,WUHU216HW,2013-04-28 09:06:00,
2013-04-28 05:11:00,43.5,29.3,30.24,SE,135,0.0,0.0,57,0.00,,,0.00,WUHU216HW,2013-04-28 09:11:00,
2013-04-28 05:17:00,43.4,29.2,30.23,SE,135,0.0,0.0,57,0.00,,,0.00,WUHU216HW,2013-04-28 09:17:00,
2013-04-28 05:22:00,43.4,29.2,30.24,SE,135,0.0,0.0,57,0.00,,,0.00,WUHU216HW,2013-04-28 09:22:00,
2013-04-28 05:27:00,43.2,29.0,30.23,SE,135,0.0,0.4,57,0.00,,,0.00,WUHU216HW,2013-04-28 09:27:00,
2013-04-28 05:32:00,43.2,29.0,30.24,SE,135,0.0,0.4,57,0.00,,,0.00,WUHU216HW,2013-04-28 09:32:00,
2013-04-28 05:37:00,43.0,28.8,30.24,SE,135,0.7,0.9,57,0.00,,,0.00,WUHU216HW,2013-04-28 09:37:00,
2013-04-28 05:42:00,43.0,29.3,30.24,SE,135,0.0,0.9,58,0.00,,,0.00,WUHU216HW,2013-04-28 09:42:00,
2013-04-28 05:47:00,43.0,29.3,30.24,SE,135,0.0,0.9,58,0.00,,,0.00,WUHU216HW,2013-04-28 09:47:00,
2013-04-28 05:52:00,43.0,29.7,30.24,ESE,113,0.4,0.9,59,0.00,,,0.00,WUHU216HW,2013-04-28 09:52:00,
2013-04-28 05:57:00,42.8,29.5,30.25,ESE,113,0.0,0.7,59,0.00,,,0.00,WUHU216HW,2013-04-28 09:57:00,
2013-04-28 06:02:00,42.6,29.3,30.24,ESE,113,0.0,0.7,59,0.00,,,0.00,WUHU216HW,2013-04-28 10:02:00,
2013-04-28 06:07:00,42.6,29.8,30.24,ESE,113,0.0,0.4,60,0.00,,,0.00,WUHU216HW,2013-04-28 10:07:00,
2013-04-28 06:12:00,42.6,29.8,30.24,SE,135,0.2,0.7,60,0.00,,,0.00,WUHU216HW,2013-04-28 10:12:00,
2013-04-28 06:18:00,42.5,29.7,30.24,SE,135,0.0,0.7,60,0.00,,,0.00,WUHU216HW,2013-04-28 10:18:00,
2013-04-28 06:23:00,42.5,30.1,30.24,SE,135,0.0,0.4,61,0.00,,,0.00,WUHU216HW,2013-04-28 10:23:00,
2013-04-28 06:28:00,42.5,30.1,30.24,SSE,158,0.0,0.4,61,0.00,,,0.00,WUHU216HW,2013-04-28 10:28:00,
2013-04-28 06:33:00,42.3,29.9,30.25,ESE,113,0.2,0.4,61,0.00,,,0.00,WUHU216HW,2013-04-28 10:33:00,
2013-04-28 06:38:00,42.3,29.9,30.25,SE,135,0.4,0.4,61,0.00,,,0.00,WUHU216HW,2013-04-28 10:38:00,
2013-04-28 06:43:00,42.5,30.1,30.25,SE,135,0.0,0.7,61,0.00,,,0.00,WUHU216HW,2013-04-28 10:43:00,
2013-04-28 06:48:00,42.5,30.5,30.25,SE,135,0.0,0.7,62,0.00,,,0.00,WUHU216HW,2013-04-28 10:48:00,
2013-04-28 06:53:00,42.6,30.6,30.25,SE,135,0.0,0.0,62,0.00,,,0.00,WUHU216HW,2013-04-28 10:53:00,
2013-04-28 06:58:00,42.6,30.6,30.25,East,90,0.7,0.7,62,0.00,,,0.00,WUHU216HW,2013-04-28 10:58:00,
2013-04-28 07:03:00,42.8,30.8,30.26,ESE,113,0.0,0.7,62,0.00,,,0.00,WUHU216HW,2013-04-28 11:03:00,
2013-04-28 07:09:00,43.0,30.9,30.25,ESE,113,0.0,0.7,62,0.00,,,0.00,WUHU216HW,2013-04-28 11:09:00,
2013-04-28 07:14:00,43.0,30.9,30.26,North,0,0.0,0.0,62,0.00,,,0.00,WUHU216HW,2013-04-28 11:14:00,
2013-04-28 07:19:00,43.2,31.1,30.26,North,0,0.0,0.0,62,0.00,,,0.00,WUHU216HW,2013-04-28 11:19:00,
2013-04-28 07:24:00,43.4,31.3,30.26,North,0,0.0,0.0,62,0.00,,,0.00,WUHU216HW,2013-04-28 11:24:00,
2013-04-28 07:29:00,43.5,31.4,30.27,North,0,0.0,0.0,62,0.00,,,0.00,WUHU216HW,2013-04-28 11:29:00,
2013-04-28 07:34:00,43.7,31.6,30.27,North,0,0.0,0.0,62,0.00,,,0.00,WUHU216HW,2013-04-28 11:34:00,
2013-04-28 07:39:00,44.1,31.6,30.27,North,0,0.0,0.0,61,0.00,,,0.00,WUHU216HW,2013-04-28 11:39:00,
2013-04-28 07:44:00,44.3,31.8,30.27,North,0,0.0,0.0,61,0.00,,,0.00,WUHU216HW,2013-04-28 11:44:00,
2013-04-28 07:50:00,44.6,32.1,30.27,North,0,0.0,0.0,61,0.00,,,0.00,WUHU216HW,2013-04-28 11:50:00,
2013-04-28 07:55:00,44.8,32.2,30.27,NNW,338,0.0,0.4,61,0.00,,,0.00,WUHU216HW,2013-04-28 11:55:00,
2013-04-28 08:00:00,45.3,32.7,30.27,NNW,338,0.0,0.4,61,0.00,,,0.00,WUHU216HW,2013-04-28 12:00:00,
2013-04-28 08:05:00,45.7,33.1,30.28,NW,315,0.0,0.4,61,0.00,,,0.00,WUHU216HW,2013-04-28 12:05:00,
2013-04-28 08:10:00,46.2,33.6,30.28,NW,315,0.0,0.4,61,0.00,,,0.00,WUHU216HW,2013-04-28 12:10:00,
2013-04-28 08:15:00,46.6,34.0,30.28,WNW,293,0.0,0.4,61,0.00,,,0.00,WUHU216HW,2013-04-28 12:15:00,
2013-04-28 08:20:00,47.0,34.3,30.28,NNW,338,0.4,0.4,61,0.00,,,0.00,WUHU216HW,2013-04-28 12:20:00,
2013-04-28 08:25:00,47.3,34.6,30.28,NNW,338,0.2,0.4,61,0.00,,,0.00,WUHU216HW,2013-04-28 12:25:00,
2013-04-28 08:30:00,47.7,34.6,30.28,WNW,293,1.1,1.1,60,0.00,,,0.00,WUHU216HW,2013-04-28 12:30:00,
2013-04-28 08:35:00,48.0,34.9,30.27,West,270,0.2,1.1,60,0.00,,,0.00,WUHU216HW,2013-04-28 12:35:00,
2013-04-28 08:41:00,48.4,34.8,30.27,SW,225,1.1,1.8,59,0.00,,,0.00,WUHU216HW,2013-04-28 12:41:00,
2013-04-28 08:46:00,48.9,35.3,30.28,West,270,1.1,1.8,59,0.00,,,0.00,WUHU216HW,2013-04-28 12:46:00,
2013-04-28 08:51:00,50.0,35.9,30.28,WSW,248,2.0,2.2,58,0.00,,,0.00,WUHU216HW,2013-04-28 12:51:00,
2013-04-28 08:56:00,50.9,35.8,30.28,NW,315,4.0,4.0,56,0.00,,,0.00,WUHU216HW,2013-04-28 12:56:00,
2013-04-28 09:01:00,51.8,35.7,30.28,WSW,248,1.3,4.0,54,0.00,,,0.00,WUHU216HW,2013-04-28 13:01:00,
2013-04-28 09:06:00,52.4,35.8,30.28,WSW,248,2.5,3.1,53,0.00,,,0.00,WUHU216HW,2013-04-28 13:06:00,
2013-04-28 09:11:00,52.7,36.1,30.28,WSW,248,2.2,2.9,53,0.00,,,0.00,WUHU216HW,2013-04-28 13:11:00,
2013-04-28 09:16:00,53.1,35.9,30.28,West,270,0.7,2.7,52,0.00,,,0.00,WUHU216HW,2013-04-28 13:16:00,
2013-04-28 09:21:00,53.4,35.7,30.27,NW,315,0.2,2.5,51,0.00,,,0.00,WUHU216HW,2013-04-28 13:21:00,
2013-04-28 09:27:00,53.8,36.1,30.27,WNW,293,0.0,1.6,51,0.00,,,0.00,WUHU216HW,2013-04-28 13:27:00,
2013-04-28 09:32:00,54.2,36.5,30.27,WSW,248,0.2,1.8,51,0.00,,,0.00,WUHU216HW,2013-04-28 13:32:00,
2013-04-28 09:37:00,54.5,37.2,30.27,SSW,203,1.6,2.2,52,0.00,,,0.00,WUHU216HW,2013-04-28 13:37:00,
2013-04-28 09:42:00,54.7,37.4,30.27,WNW,293,0.2,2.2,52,0.00,,,0.00,WUHU216HW,2013-04-28 13:42:00,
2013-04-28 09:47:00,55.2,37.4,30.27,SW,225,0.4,1.6,51,0.00,,,0.00,WUHU216HW,2013-04-28 13:47:00,
2013-04-28 09:52:00,55.2,37.4,30.27,West,270,2.2,2.2,51,0.00,,,0.00,WUHU216HW,2013-04-28 13:52:00,
2013-04-28 09:57:00,55.6,37.2,30.27,West,270,1.8,2.2,50,0.00,,,0.00,WUHU216HW,2013-04-28 13:57:00,
2013-04-28 10:02:00,56.0,37.6,30.27,West,270,1.1,2.5,50,0.00,,,0.00,WUHU216HW,2013-04-28 14:02:00,
2013-04-28 10:07:00,56.3,37.4,30.26,SSW,203,1.6,2.5,49,0.00,,,0.00,WUHU216HW,2013-04-28 14:07:00,
2013-04-28 10:13:00,56.9,37.9,30.27,SW,225,4.0,4.0,49,0.00,,,0.00,WUHU216HW,2013-04-28 14:13:00,
2013-04-28 10:18:00,57.4,37.8,30.27,SSE,158,2.7,4.0,48,0.00,,,0.00,WUHU216HW,2013-04-28 14:18:00,
2013-04-28 10:23:00,57.8,38.2,30.27,SSW,203,2.5,4.9,48,0.00,,,0.00,WUHU216HW,2013-04-28 14:23:00,
2013-04-28 10:28:00,58.1,37.9,30.27,SE,135,2.9,4.9,47,0.00,,,0.00,WUHU216HW,2013-04-28 14:28:00,
2013-04-28 10:33:00,58.3,38.1,30.26,West,270,4.5,4.5,47,0.00,,,0.00,WUHU216HW,2013-04-28 14:33:00,
2013-04-28 10:38:00,58.7,37.9,30.27,SW,225,4.0,4.5,46,0.00,,,0.00,WUHU216HW,2013-04-28 14:38:00,
2013-04-28 10:43:00,59.0,37.6,30.27,WSW,248,2.5,4.0,45,0.00,,,0.00,WUHU216HW,2013-04-28 14:43:00,
2013-04-28 10:48:00,59.2,37.2,30.26,WNW,293,0.4,4.3,44,0.00,,,0.00,WUHU216HW,2013-04-28 14:48:00,
2013-04-28 10:53:00,59.4,37.4,30.26,SW,225,0.9,4.3,44,0.00,,,0.00,WUHU216HW,2013-04-28 14:53:00,
2013-04-28 10:58:00,59.6,37.6,30.26,SW,225,4.0,4.7,44,0.00,,,0.00,WUHU216HW,2013-04-28 14:58:00,
2013-04-28 11:04:00,59.7,37.7,30.26,WSW,248,3.4,4.7,44,0.00,,,0.00,WUHU216HW,2013-04-28 15:04:00,
2013-04-28 11:09:00,60.1,37.4,30.26,WSW,248,1.6,4.3,43,0.00,,,0.00,WUHU216HW,2013-04-28 15:09:00,
2013-04-28 11:14:00,60.3,37.6,30.26,SW,225,2.2,5.4,43,0.00,,,0.00,WUHU216HW,2013-04-28 15:14:00,
2013-04-28 11:19:00,60.5,37.8,30.26,WNW,293,5.1,5.4,43,0.00,,,0.00,WUHU216HW,2013-04-28 15:19:00,
2013-04-28 11:24:00,61.0,38.2,30.26,WSW,248,2.2,5.8,43,0.00,,,0.00,WUHU216HW,2013-04-28 15:24:00,
2013-04-28 11:29:00,61.4,38.6,30.26,West,270,5.1,5.8,43,0.00,,,0.00,WUHU216HW,2013-04-28 15:29:00,
2013-04-28 11:34:00,61.7,38.2,30.26,NNW,338,3.4,5.8,42,0.00,,,0.00,WUHU216HW,2013-04-28 15:34:00,
2013-04-28 11:39:00,61.7,37.6,30.26,West,270,4.9,5.8,41,0.00,,,0.00,WUHU216HW,2013-04-28 15:39:00,
2013-04-28 11:44:00,62.3,38.8,30.26,North,0,0.9,4.9,42,0.00,,,0.00,WUHU216HW,2013-04-28 15:44:00,
2013-04-28 11:49:00,62.4,38.9,30.25,SE,135,1.1,4.9,42,0.00,,,0.00,WUHU216HW,2013-04-28 15:49:00,
2013-04-28 11:55:00,62.6,39.1,30.25,SSE,158,1.8,2.7,42,0.00,,,0.00,WUHU216HW,2013-04-28 15:55:00,
2013-04-28 12:00:00,63.2,38.3,30.25,WSW,248,3.1,5.1,40,0.00,,,0.00,WUHU216HW,2013-04-28 16:00:00,
2013-04-28 12:05:00,63.3,37.8,30.25,WSW,248,3.6,5.1,39,0.00,,,0.00,WUHU216HW,2013-04-28 16:05:00,
2013-04-28 12:10:00,63.5,37.9,30.25,SSE,158,4.7,4.7,39,0.00,,,0.00,WUHU216HW,2013-04-28 16:10:00,
2013-04-28 12:15:00,63.7,38.8,30.25,West,270,1.1,4.7,40,0.00,,,0.00,WUHU216HW,2013-04-28 16:15:00,
2013-04-28 12:20:00,63.9,39.0,30.24,South,180,0.7,4.7,40,0.00,,,0.00,WUHU216HW,2013-04-28 16:20:00,
2013-04-28 12:25:00,64.1,39.1,30.24,WSW,248,0.7,2.5,40,0.00,,,0.00,WUHU216HW,2013-04-28 16:25:00,
2013-04-28 12:30:00,64.2,38.6,30.24,West,270,1.3,2.5,39,0.00,,,0.00,WUHU216HW,2013-04-28 16:30:00,
2013-04-28 12:36:00,64.2,38.6,30.23,NW,315,1.1,2.5,39,0.00,,,0.00,WUHU216HW,2013-04-28 16:36:00,
2013-04-28 12:41:00,64.4,38.7,30.24,SSW,203,0.2,2.0,39,0.00,,,0.00,WUHU216HW,2013-04-28 16:41:00,
2013-04-28 12:46:00,64.6,38.2,30.23,SW,225,0.7,2.0,38,0.00,,,0.00,WUHU216HW,2013-04-28 16:46:00,
2013-04-28 12:51:00,65.0,39.3,30.24,SE,135,1.3,2.9,39,0.00,,,0.00,WUHU216HW,2013-04-28 16:51:00,
2013-04-28 12:56:00,65.0,39.3,30.23,SW,225,6.9,6.9,39,0.00,,,0.00,WUHU216HW,2013-04-28 16:56:00,
2013-04-28 13:01:00,65.1,39.4,30.23,SSE,158,2.5,6.9,39,0.00,,,0.00,WUHU216HW,2013-04-28 17:01:00,
2013-04-28 13:06:00,65.3,39.5,30.23,SSE,158,4.7,4.7,39,0.00,,,0.00,WUHU216HW,2013-04-28 17:06:00,
2013-04-28 13:11:00,65.3,39.5,30.23,WNW,293,1.1,4.7,39,0.00,,,0.00,WUHU216HW,2013-04-28 17:11:00,
2013-04-28 13:16:00,65.3,39.5,30.23,SSE,158,1.3,4.7,39,0.00,,,0.00,WUHU216HW,2013-04-28 17:16:00,
2013-04-28 13:21:00,65.7,39.9,30.23,ESE,113,2.7,6.0,39,0.00,,,0.00,WUHU216HW,2013-04-28 17:21:00,
2013-04-28 13:27:00,66.0,40.8,30.24,SE,135,3.6,6.0,40,0.00,,,0.00,WUHU216HW,2013-04-28 17:27:00,
2013-04-28 13:32:00,66.6,42.0,30.23,SW,225,2.5,4.0,41,0.00,,,0.00,WUHU216HW,2013-04-28 17:32:00,
2013-04-28 13:37:00,66.8,40.9,30.23,SSE,158,1.8,4.0,39,0.00,,,0.00,WUHU216HW,2013-04-28 17:37:00,
2013-04-28 13:42:00,66.8,40.9,30.23,NW,315,2.7,3.4,39,0.00,,,0.00,WUHU216HW,2013-04-28 17:42:00,
2013-04-28 13:47:00,66.8,39.5,30.23,WNW,293,1.8,3.4,37,0.00,,,0.00,WUHU216HW,2013-04-28 17:47:00,
2013-04-28 13:52:00,66.0,38.8,30.23,WSW,248,2.9,4.3,37,0.00,,,0.00,WUHU216HW,2013-04-28 17:52:00,
2013-04-28 13:57:00,65.7,39.2,30.23,SSE,158,2.0,4.3,38,0.00,,,0.00,WUHU216HW,2013-04-28 17:57:00,
2013-04-28 14:02:00,65.9,40.1,30.22,ESE,113,3.4,3.4,39,0.00,,,0.00,WUHU216HW,2013-04-28 18:02:00,
2013-04-28 14:07:00,66.0,40.2,30.22,WSW,248,2.5,4.3,39,0.00,,,0.00,WUHU216HW,2013-04-28 18:07:00,
2013-04-28 14:13:00,66.0,40.2,30.22,SSE,158,3.8,4.3,39,0.00,,,0.00,WUHU216HW,2013-04-28 18:13:00,
2013-04-28 14:18:00,66.0,40.2,30.22,NW,315,0.7,3.8,39,0.00,,,0.00,WUHU216HW,2013-04-28 18:18:00,
2013-04-28 14:23:00,66.4,41.2,30.22,ESE,113,1.1,5.4,40,0.00,,,0.00,WUHU216HW,2013-04-28 18:23:00,
2013-04-28 14:28:00,66.6,41.4,30.21,SE,135,1.1,5.4,40,0.00,,,0.00,WUHU216HW,2013-04-28 18:28:00,
2013-04-28 14:33:00,66.6,40.7,30.21,SSW,203,4.3,4.3,39,0.00,,,0.00,WUHU216HW,2013-04-28 18:33:00,
2013-04-28 14:38:00,66.4,39.9,30.21,ESE,113,1.1,4.3,38,0.00,,,0.00,WUHU216HW,2013-04-28 18:38:00,
2013-04-28 14:43:00,66.4,40.5,30.21,ESE,113,3.1,4.3,39,0.00,,,0.00,WUHU216HW,2013-04-28 18:43:00,
2013-04-28 14:48:00,66.6,40.7,30.21,WSW,248,2.5,3.1,39,0.00,,,0.00,WUHU216HW,2013-04-28 18:48:00,
2013-04-28 14:53:00,66.4,39.9,30.21,SE,135,2.9,3.1,38,0.00,,,0.00,WUHU216HW,2013-04-28 18:53:00,
2013-04-28 14:58:00,66.6,40.7,30.21,ESE,113,3.1,3.1,39,0.00,,,0.00,WUHU216HW,2013-04-28 18:58:00,
2013-04-28 15:04:00,66.9,41.0,30.20,NNW,338,3.4,3.4,39,0.00,,,0.00,WUHU216HW,2013-04-28 19:04:00,
2013-04-28 15:09:00,66.8,40.2,30.20,SSW,203,1.6,3.4,38,0.00,,,0.00,WUHU216HW,2013-04-28 19:09:00,
2013-04-28 15:14:00,66.8,40.2,30.20,South,180,5.6,7.4,38,0.00,,,0.00,WUHU216HW,2013-04-28 19:14:00,
2013-04-28 15:19:00,66.6,40.0,30.20,South,180,1.1,7.4,38,0.00,,,0.00,WUHU216HW,2013-04-28 19:19:00,
2013-04-28 15:24:00,66.6,40.0,30.20,ESE,113,1.8,5.6,38,0.00,,,0.00,WUHU216HW,2013-04-28 19:24:00,
2013-04-28 15:29:00,66.4,40.5,30.20,SE,135,1.6,3.6,39,0.00,,,0.00,WUHU216HW,2013-04-28 19:29:00,
2013-04-28 15:34:00,66.6,40.7,30.20,SSE,158,4.7,5.4,39,0.00,,,0.00,WUHU216HW,2013-04-28 19:34:00,
2013-04-28 15:39:00,66.8,40.9,30.20,ESE,113,1.1,5.4,39,0.00,,,0.00,WUHU216HW,2013-04-28 19:39:00,
2013-04-28 15:45:00,66.8,40.9,30.20,SSE,158,1.8,4.7,39,0.00,,,0.00,WUHU216HW,2013-04-28 19:45:00,
2013-04-28 15:50:00,66.6,40.0,30.20,SSE,158,1.8,3.4,38,0.00,,,0.00,WUHU216HW,2013-04-28 19:50:00,
2013-04-28 15:55:00,66.6,40.7,30.20,SE,135,1.8,3.4,39,0.00,,,0.00,WUHU216HW,2013-04-28 19:55:00,
2013-04-28 16:00:00,66.8,40.9,30.20,SSE,158,1.8,3.1,39,0.00,,,0.00,WUHU216HW,2013-04-28 20:00:00,
2013-04-28 16:05:00,66.9,41.0,30.20,South,180,3.4,3.4,39,0.00,,,0.00,WUHU216HW,2013-04-28 20:05:00,
2013-04-28 16:10:00,66.9,41.0,30.20,East,90,1.8,3.4,39,0.00,,,0.00,WUHU216HW,2013-04-28 20:10:00,
2013-04-28 16:15:00,66.9,41.0,30.20,ENE,68,1.1,2.9,39,0.00,,,0.00,WUHU216HW,2013-04-28 20:15:00,
2013-04-28 16:20:00,66.8,40.2,30.19,SSE,158,2.5,2.9,38,0.00,,,0.00,WUHU216HW,2013-04-28 20:20:00,
2013-04-28 16:25:00,66.6,40.0,30.19,ESE,113,1.8,3.4,38,0.00,,,0.00,WUHU216HW,2013-04-28 20:25:00,
2013-04-28 16:31:00,66.2,39.7,30.19,SE,135,1.1,3.8,38,0.00,,,0.00,WUHU216HW,2013-04-28 20:31:00,
2013-04-28 16:36:00,66.0,40.2,30.19,SSE,158,3.4,3.8,39,0.00,,,0.00,WUHU216HW,2013-04-28 20:36:00,
2013-04-28 16:41:00,66.0,40.2,30.19,ESE,113,1.1,3.4,39,0.00,,,0.00,WUHU216HW,2013-04-28 20:41:00,
2013-04-28 16:46:00,66.0,40.2,30.19,ESE,113,0.9,3.4,39,0.00,,,0.00,WUHU216HW,2013-04-28 20:46:00,
2013-04-28 16:51:00,66.0,40.2,30.18,NNE,23,0.7,2.5,39,0.00,,,0.00,WUHU216HW,2013-04-28 20:51:00,
2013-04-28 16:56:00,66.0,40.2,30.18,SE,135,1.8,2.5,39,0.00,,,0.00,WUHU216HW,2013-04-28 20:56:00,
2013-04-28 17:01:00,66.0,40.2,30.18,WSW,248,2.5,2.5,39,0.00,,,0.00,WUHU216HW,2013-04-28 21:01:00,
2013-04-28 17:06:00,65.7,39.9,30.18,SSW,203,4.7,4.7,39,0.00,,,0.00,WUHU216HW,2013-04-28 21:06:00,
2013-04-28 17:11:00,65.5,39.7,30.18,SE,135,1.8,4.7,39,0.00,,,0.00,WUHU216HW,2013-04-28 21:11:00,
2013-04-28 17:17:00,65.3,39.5,30.18,ESE,113,2.0,2.2,39,0.00,,,0.00,WUHU216HW,2013-04-28 21:17:00,
2013-04-28 17:22:00,65.3,39.5,30.18,South,180,3.4,4.9,39,0.00,,,0.00,WUHU216HW,2013-04-28 21:22:00,
2013-04-28 17:27:00,65.3,39.5,30.18,West,270,2.2,4.9,39,0.00,,,0.00,WUHU216HW,2013-04-28 21:27:00,
2013-04-28 17:32:00,65.1,39.4,30.18,SSE,158,2.2,3.4,39,0.00,,,0.00,WUHU216HW,2013-04-28 21:32:00,
2013-04-28 17:37:00,65.0,39.3,30.17,SSE,158,2.5,2.5,39,0.00,,,0.00,WUHU216HW,2013-04-28 21:37:00,
2013-04-28 17:42:00,65.0,38.6,30.17,SSE,158,1.8,2.5,38,0.00,,,0.00,WUHU216HW,2013-04-28 21:42:00,
2013-04-28 17:47:00,65.0,38.6,30.17,SE,135,1.1,3.6,38,0.00,,,0.00,WUHU216HW,2013-04-28 21:47:00,
2013-04-28 17:52:00,64.2,37.9,30.17,SE,135,0.9,3.6,38,0.00,,,0.00,WUHU216HW,2013-04-28 21:52:00,
2013-04-28 17:57:00,64.2,38.6,30.17,SSE,158,2.7,2.7,39,0.00,,,0.00,WUHU216HW,2013-04-28 21:57:00,
2013-04-28 18:03:00,64.2,38.6,30.16,SSE,158,2.0,3.4,39,0.00,,,0.00,WUHU216HW,2013-04-28 22:03:00,
2013-04-28 18:08:00,64.1,37.8,30.16,SSE,158,3.4,3.4,38,0.00,,,0.00,WUHU216HW,2013-04-28 22:08:00,
2013-04-28 18:13:00,63.9,37.6,30.17,SSE,158,0.9,3.4,38,0.00,,,0.00,WUHU216HW,2013-04-28 22:13:00,
2013-04-28 18:18:00,63.9,37.6,30.16,SE,135,2.2,3.4,38,0.00,,,0.00,WUHU216HW,2013-04-28 22:18:00,
2013-04-28 18:23:00,63.7,37.4,30.16,ESE,113,0.4,2.2,38,0.00,,,0.00,WUHU216HW,2013-04-28 22:23:00,
2013-04-28 18:28:00,63.5,37.3,30.16,SE,135,1.8,2.2,38,0.00,,,0.00,WUHU216HW,2013-04-28 22:28:00,
2013-04-28 18:33:00,63.2,37.0,30.16,SSW,203,1.1,3.4,38,0.00,,,0.00,WUHU216HW,2013-04-28 22:33:00,
2013-04-28 18:38:00,63.0,36.8,30.16,South,180,2.2,3.4,38,0.00,,,0.00,WUHU216HW,2013-04-28 22:38:00,
2013-04-28 18:43:00,62.8,36.6,30.16,SW,225,1.1,3.1,38,0.00,,,0.00,WUHU216HW,2013-04-28 22:43:00,
2013-04-28 18:48:00,62.3,36.2,30.16,SE,135,1.1,3.8,38,0.00,,,0.00,WUHU216HW,2013-04-28 22:48:00,
2013-04-28 18:53:00,61.9,35.8,30.16,SE,135,1.8,3.8,38,0.00,,,0.00,WUHU216HW,2013-04-28 22:53:00,
2013-04-28 18:58:00,61.5,35.5,30.16,South,180,2.5,4.0,38,0.00,,,0.00,WUHU216HW,2013-04-28 22:58:00,
2013-04-28 19:04:00,61.4,35.4,30.16,West,270,1.8,4.0,38,0.00,,,0.00,WUHU216HW,2013-04-28 23:04:00,
2013-04-28 19:09:00,61.0,35.0,30.17,SE,135,3.4,3.4,38,0.00,,,0.00,WUHU216HW,2013-04-28 23:09:00,
2013-04-28 19:14:00,60.8,34.8,30.17,SE,135,1.3,3.4,38,0.00,,,0.00,WUHU216HW,2013-04-28 23:14:00,
2013-04-28 19:19:00,60.6,34.7,30.17,SSE,158,2.9,3.8,38,0.00,,,0.00,WUHU216HW,2013-04-28 23:19:00,
2013-04-28 19:24:00,60.3,34.4,30.18,ESE,113,0.9,3.8,38,0.00,,,0.00,WUHU216HW,2013-04-28 23:24:00,
2013-04-28 19:29:00,60.1,34.2,30.17,South,180,1.8,5.4,38,0.00,,,0.00,WUHU216HW,2013-04-28 23:29:00,
2013-04-28 19:34:00,59.9,34.7,30.17,SE,135,1.1,5.4,39,0.00,,,0.00,WUHU216HW,2013-04-28 23:34:00,
2013-04-28 19:39:00,59.7,34.5,30.17,South,180,0.0,2.9,39,0.00,,,0.00,WUHU216HW,2013-04-28 23:39:00,
2013-04-28 19:44:00,59.6,34.4,30.17,SSE,158,1.1,2.9,39,0.00,,,0.00,WUHU216HW,2013-04-28 23:44:00,
2013-04-28 19:49:00,59.4,34.3,30.17,ESE,113,2.0,2.0,39,0.00,,,0.00,WUHU216HW,2013-04-28 23:49:00,
2013-04-28 19:54:00,59.2,34.1,30.17,SSE,158,0.4,2.2,39,0.00,,,0.00,WUHU216HW,2013-04-28 23:54:00,
2013-04-28 19:59:00,58.8,33.7,30.17,SE,135,1.3,3.1,39,0.00,,,0.00,WUHU216HW,2013-04-28 23:59:00,
2013-04-28 20:04:00,58.7,33.6,30.17,ESE,113,2.2,3.1,39,0.00,,,0.00,WUHU216HW,2013-04-29 00:04:00,
2013-04-28 20:09:00,58.5,33.4,30.17,ESE,113,1.8,2.9,39,0.00,,,0.00,WUHU216HW,2013-04-29 00:09:00,
2013-04-28 20:14:00,58.3,33.9,30.17,SE,135,2.5,3.1,40,0.00,,,0.00,WUHU216HW,2013-04-29 00:14:00,
2013-04-28 20:19:00,58.1,33.7,30.17,SSE,158,1.1,3.1,40,0.00,,,0.00,WUHU216HW,2013-04-29 00:19:00,
2013-04-28 20:24:00,57.9,33.6,30.17,SSE,158,1.8,2.9,40,0.00,,,0.00,WUHU216HW,2013-04-29 00:24:00,
2013-04-28 20:30:00,57.8,33.5,30.17,SE,135,2.2,2.2,40,0.00,,,0.00,WUHU216HW,2013-04-29 00:30:00,
2013-04-28 20:35:00,57.4,33.1,30.17,ESE,113,1.3,2.2,40,0.00,,,0.00,WUHU216HW,2013-04-29 00:35:00,
2013-04-28 20:40:00,57.2,32.9,30.18,SSE,158,0.4,2.2,40,0.00,,,0.00,WUHU216HW,2013-04-29 00:40:00,
2013-04-28 20:45:00,57.0,32.7,30.18,SE,135,1.1,2.2,40,0.00,,,0.00,WUHU216HW,2013-04-29 00:45:00,
2013-04-28 20:50:00,56.9,32.6,30.18,East,90,1.1,2.2,40,0.00,,,0.00,WUHU216HW,2013-04-29 00:50:00,
2013-04-28 20:55:00,56.7,32.5,30.18,ESE,113,2.9,3.4,40,0.00,,,0.00,WUHU216HW,2013-04-29 00:55:00,
2013-04-28 21:00:00,56.5,32.3,30.18,SSE,158,1.8,3.4,40,0.00,,,0.00,WUHU216HW,2013-04-29 01:00:00,
2013-04-28 21:05:00,56.5,32.3,30.18,SSE,158,1.1,2.9,40,0.00,,,0.00,WUHU216HW,2013-04-29 01:05:00,
2013-04-28 21:10:00,56.3,32.1,30.18,SE,135,1.8,1.8,40,0.00,,,0.00,WUHU216HW,2013-04-29 01:10:00,
2013-04-28 21:15:00,56.1,31.9,30.19,SSE,158,1.1,1.8,40,0.00,,,0.00,WUHU216HW,2013-04-29 01:15:00,
2013-04-28 21:20:00,56.0,31.8,30.19,SSE,158,1.1,1.8,40,0.00,,,0.00,WUHU216HW,2013-04-29 01:20:00,
2013-04-28 21:25:00,56.0,32.5,30.19,ESE,113,0.7,1.8,41,0.00,,,0.00,WUHU216HW,2013-04-29 01:25:00,
2013-04-28 21:31:00,55.8,32.3,30.19,SSE,158,1.8,1.8,41,0.00,,,0.00,WUHU216HW,2013-04-29 01:31:00,
2013-04-28 21:36:00,55.8,31.7,30.19,SSE,158,1.8,1.8,40,0.00,,,0.00,WUHU216HW,2013-04-29 01:36:00,
2013-04-28 21:41:00,55.6,32.1,30.19,ESE,113,0.9,1.8,41,0.00,,,0.00,WUHU216HW,2013-04-29 01:41:00,
2013-04-28 21:46:00,55.2,31.1,30.19,SSE,158,1.1,1.8,40,0.00,,,0.00,WUHU216HW,2013-04-29 01:46:00,
2013-04-28 21:51:00,55.2,31.7,30.20,SSE,158,2.5,3.6,41,0.00,,,0.00,WUHU216HW,2013-04-29 01:51:00,
2013-04-28 21:56:00,55.1,31.0,30.20,West,270,1.1,3.6,40,0.00,,,0.00,WUHU216HW,2013-04-29 01:56:00,
2013-04-28 22:01:00,54.9,30.8,30.20,SSE,158,4.5,4.5,40,0.00,,,0.00,WUHU216HW,2013-04-29 02:01:00,
2013-04-28 22:06:00,54.7,30.7,30.20,SSE,158,1.1,4.5,40,0.00,,,0.00,WUHU216HW,2013-04-29 02:06:00,
2013-04-28 22:12:00,54.5,30.5,30.20,SSE,158,1.8,2.5,40,0.00,,,0.00,WUHU216HW,2013-04-29 02:12:00,
2013-04-28 22:17:00,54.5,30.5,30.20,ESE,113,2.0,2.5,40,0.00,,,0.00,WUHU216HW,2013-04-29 02:17:00,
2013-04-28 22:22:00,54.3,30.3,30.20,SSE,158,0.4,2.5,40,0.00,,,0.00,WUHU216HW,2013-04-29 02:22:00,
2013-04-28 22:27:00,54.2,30.2,30.20,SSE,158,2.5,2.9,40,0.00,,,0.00,WUHU216HW,2013-04-29 02:27:00,
2013-04-28 22:32:00,54.0,30.0,30.20,SE,135,0.2,2.9,40,0.00,,,0.00,WUHU216HW,2013-04-29 02:32:00,
2013-04-28 22:37:00,54.0,30.0,30.20,SW,225,0.4,2.7,40,0.00,,,0.00,WUHU216HW,2013-04-29 02:37:00,
2013-04-28 22:42:00,53.8,29.9,30.20,SE,135,1.1,1.8,40,0.00,,,0.00,WUHU216HW,2013-04-29 02:42:00,
2013-04-28 22:47:00,53.8,29.9,30.20,SSE,158,1.1,1.8,40,0.00,,,0.00,WUHU216HW,2013-04-29 02:47:00,
2013-04-28 22:53:00,53.6,29.7,30.20,SSE,158,0.7,2.0,40,0.00,,,0.00,WUHU216HW,2013-04-29 02:53:00,
2013-04-28 22:58:00,53.4,30.1,30.20,SE,135,0.4,2.0,41,0.00,,,0.00,WUHU216HW,2013-04-29 02:58:00,
2013-04-28 23:03:00,53.4,30.1,30.20,NNW,338,0.0,1.3,41,0.00,,,0.00,WUHU216HW,2013-04-29 03:03:00,
2013-04-28 23:08:00,53.3,30.0,30.21,SE,135,0.4,1.1,41,0.00,,,0.00,WUHU216HW,2013-04-29 03:08:00,
2013-04-28 23:13:00,53.1,29.8,30.21,East,90,0.7,1.6,41,0.00,,,0.00,WUHU216HW,2013-04-29 03:13:00,
2013-04-28 23:18:00,53.1,30.5,30.21,ESE,113,0.4,1.8,42,0.00,,,0.00,WUHU216HW,2013-04-29 03:18:00,
2013-04-28 23:23:00,53.1,30.5,30.21,SSE,158,1.1,2.0,42,0.00,,,0.00,WUHU216HW,2013-04-29 03:23:00,
2013-04-28 23:28:00,53.1,31.1,30.21,SSE,158,1.8,2.0,43,0.00,,,0.00,WUHU216HW,2013-04-29 03:28:00,
2013-04-28 23:33:00,53.1,31.1,30.21,SSE,158,0.7,2.0,43,0.00,,,0.00,WUHU216HW,2013-04-29 03:33:00,
2013-04-28 23:39:00,52.9,31.5,30.21,SSE,158,1.1,2.0,44,0.00,,,0.00,WUHU216HW,2013-04-29 03:39:00,
2013-04-28 23:44:00,52.9,31.5,30.21,SE,135,0.9,1.8,44,0.00,,,0.00,WUHU216HW,2013-04-29 03:44:00,
2013-04-28 23:49:00,52.9,32.0,30.21,SE,135,0.7,1.8,45,0.00,,,0.00,WUHU216HW,2013-04-29 03:49:00,
2013-04-28 23:54:00,52.7,32.4,30.21,SSE,158,0.4,1.8,46,0.00,,,0.00,WUHU216HW,2013-04-29 03:54:00,
2013-04-28 23:59:00,52.7,33.0,30.21,SSE,158,0.7,2.5,47,0.00,,,0.00,WUHU216HW,2013-04-29 03:59:00,